Weather Roundup
Issued by NWS Chicago, IL

Home | Current Version | Previous Version | Text Only | Print | Product List | Glossary Off
Versions: 1 2 3 4 5 6 7 8 9 10 11 12 13 14 15 16 17 18 19 20 21 22 23 24 25 26 27 28 29 30 31 32 33 34 35 36 37 38 39 40 41 42 43 44 45 46 47 48 49 50

000
NZUS59 KLOT 221608
HRRLOT

CHICAGO AREA WEATHER ROUNDUP
NATIONAL WEATHER SERVICE CHICAGO/ROMEOVILLE IL
1000 AM CST WED FEB 22 2017

NOTE: "FAIR" INDICATES FEW OR NO CLOUDS BELOW 12,000 FEET WITH NO
SIGNIFICANT WEATHER AND/OR OBSTRUCTIONS TO VISIBILITY.

* THESE STATIONS ARE NOT UNDER NWS QUALITY CONTROL. THEY ALSO MAY NOT
  REPORT WEATHER SUCH AS PRECIPITATION OR FOG.

ILZ005-006-012>014-019>023-221700-
NORTHEAST ILLINOIS

CITY           SKY/WX    TMP DP  RH WIND       PRES   REMARKS
OHARE          CLOUDY    55  52  89 SW10      29.77F FOG
MIDWAY         FOG       54  54 100 S8        29.79S VSB 3/4
AURORA         CLOUDY    56  55  97 SW9       29.78F FOG
LANSING*       CLOUDY    54  54 100 NW9       29.81F FOG
JOLIET*        FOG       54  54 100 S6        29.81S VSB 3/4
WAUKEGAN       PTSUNNY   58  53  84 SW18      29.73F
DUPAGE AIRPORT CLOUDY    55  53  93 SW10      29.78F FOG
WHEELING       CLOUDY    56  52  86 SW9       29.78F
KANKAKEE*      FOG       53  52  97 CALM      29.82F VSB 1/2
MORRIS*        CLOUDY    53  53  98 SW6       29.80R FOG
LEWIS AIRPORT* FOG       52  52 100 SW8       29.80S VSB 1/4
NORTHERLY ISL    N/A     54  52  93 SW14        N/A
$$

WIZ051-052-058>065-066-070>072-221700-
SOUTHEAST WISCONSIN

CITY           SKY/WX    TMP DP  RH WIND       PRES   REMARKS
MILWAUKEE      PTSUNNY   57  52  83 SW13      29.71F
KENOSHA*       CLOUDY    56  53  90 SW13      29.73F
RACINE*        CLOUDY    56  53  90 SW15      29.73F
WAUKESHA       PTSUNNY   54  50  87 S14       29.71F
WEST BEND      SUNNY     59  52  77 SW13      29.66F
$$

INZ001>003-010>013-019-020-221700-
NORTHWEST INDIANA

CITY           SKY/WX    TMP DP  RH WIND       PRES   REMARKS
GARY*          CLOUDY    55  54  94 SW7       29.81S FOG
MICHIGAN CITY* NOT AVBL
RENSSELAER*    NOT AVBL
VALPARAISO     FOG       55  54  96 S10       29.82S VSB 1
$$

LMZ740>746-221700-
SOUTHERN LAKE MICHIGAN

STATION/POSITION TIME  SKY/WX   TEMP WIND        PRES    VSBY
                                AIR  DIR/SP/G
                 (UTC)          (F)  (DEG/KT/KT) (MB)    (MI)
HARRISON CRIB    1540            54  210/ 17/ 18   N/A
BURNHAM HARBOR   1600            54  210/ 10/ 12   N/A
CALUMET HARBOR   1542            54  200/ 10/ 14 1008.4F
BURNS HARBOR     1540            54  190/ 12/ 14 1009.8S
MICHIGAN CITY    1540            56  180/  7/ 10   N/A
$$

ABBREVIATIONS USED IN REMARKS
   TC - TEMPERATURE IN CELSIUS
  WCI - WIND CHILL INDEX
   HX - HEAT INDEX
  VSB - VISIBILITY
$$




USA.gov is the U.S. government's official web portal to all federal, state and local government web resources and services.